EW8308 Weather Reports


time (UTC)temp
C
wind
direction
speed
KPH
gust
KPH
rain 1hr
cm
rain 24hr
cm
rain mn
cm
humidity
%
barometer
mb
20260502183028 21 249 4.8 11.3 0.00 0.00 0.00 37 1016.5
20260502182028 21 250 3.2 8.0 0.00 0.00 0.00 40 1016.6
20260502181528 21 250 3.2 9.7 0.00 0.00 0.00 38 1016.6
20260502181028 21 249 4.8 9.7 0.00 0.00 0.00 42 1016.6
20260502180526 21 249 4.8 9.7 0.00 0.00 0.00 37 1016.6
20260502170518 18 249 1.6 8.0 0.00 0.00 0.00 41 1016.7
20260502163013 17 250 3.2 8.0 0.00 0.00 0.00 42 1016.8
20260502162013 17 250 1.6 4.8 0.00 0.00 0.00 51 1016.9
20260502161012 16 250 1.6 4.8 0.00 0.00 0.00 50 1016.9
20260502152012 14 249 0.0 1.6 0.00 0.00 0.00 60 1016.9
20260502151513 13 250 1.6 4.8 0.00 0.00 0.00 59 1016.9
20260502151013 13 250 1.6 4.8 0.00 0.00 0.00 59 1016.9
20260502150513 12 250 0.0 4.8 0.00 0.00 0.00 61 1016.9
20260502130500 7 249 1.6 6.4 0.00 0.00 0.00 74 1016.4
20260502123500 7 250 1.6 6.4 0.00 0.00 0.00 72 1016.4
20260502123000 7 250 1.6 6.4 0.00 0.00 0.00 71 1016.3
20260502121958 8 250 0.0 8.0 0.00 0.00 0.00 69 1016.4
20260502121456 8 250 0.0 3.2 0.00 0.00 0.00 70 1016.4
20260502120455 7 250 1.6 3.2 0.00 0.00 0.00 72 1016.4
20260502115456 7 249 3.2 6.4 0.00 0.00 0.00 74 1016.4
20260502114954 7 250 4.8 6.4 0.00 0.00 0.00 75 1016.4
20260502114452 7 250 4.8 6.4 0.00 0.00 0.00 76 1016.4
20260502113952 7 250 3.2 6.4 0.00 0.00 0.00 76 1016.3
20260502113452 7 250 3.2 6.4 0.00 0.00 0.00 75 1016.3
20260502112950 7 250 3.2 4.8 0.00 0.00 0.00 75 1016.2
20260502112448 7 250 3.2 4.8 0.00 0.00 0.00 75 1016.3
20260502111448 7 250 1.6 3.2 0.00 0.00 0.00 74 1016.2
20260502110446 8 250 0.0 3.2 0.00 0.00 0.00 70 1016.2
20260502105945 8 250 1.6 4.8 0.00 0.00 0.00 71 1016.1
20260502105442 7 250 0.0 4.8 0.00 0.00 0.00 71 1016.1
20260502104440 8 250 0.0 0.0 0.00 0.00 0.00 71 1016.1
20260502103940 8 250 0.0 0.0 0.00 0.00 0.00 70 1016.2
20260502103438 8 250 1.6 4.8 0.00 0.00 0.00 68 1016.2
20260502102938 8 250 1.6 4.8 0.00 0.00 0.00 69 1016.2
20260502102436 8 250 1.6 3.2 0.00 0.00 0.00 67 1016.3
20260502101934 8 250 1.6 3.2 0.00 0.00 0.00 67 1016.2
20260502101431 8 250 1.6 6.4 0.00 0.00 0.00 68 1016.3
20260502100930 8 250 1.6 6.4 0.00 0.00 0.00 68 1016.2
20260502091419 8 250 1.6 4.8 0.00 0.00 0.00 67 1016.3
20260502090919 8 250 3.2 4.8 0.00 0.00 0.00 69 1016.2
20260502090418 8 250 1.6 4.8 0.00 0.00 0.00 70 1016.3
20260502071359 11 250 0.0 3.2 0.00 0.00 0.00 59 1016.3
20260502070359 11 250 0.0 0.0 0.00 0.00 0.00 58 1016.2
20260502064356 12 250 0.0 1.6 0.00 0.00 0.00 58 1016.3
20260502063855 11 250 0.0 1.6 0.00 0.00 0.00 58 1016.3
20260502061846 12 249 0.0 1.6 0.00 0.00 0.00 58 1016.2
20260502060845 12 250 0.0 3.2 0.00 0.00 0.00 56 1016.2
20260502060345 12 250 0.0 3.2 0.00 0.00 0.00 56 1016.2
20260502055845 12 249 1.6 3.2 0.00 0.00 0.00 55 1016.2
20260502055344 12 250 0.0 3.2 0.00 0.00 0.00 55 1016.3
20260502054342 12 250 0.0 0.0 0.00 0.00 0.00 54 1016.3
20260502053840 13 250 0.0 0.0 0.00 0.00 0.00 53 1016.3
20260502053338 13 250 0.0 1.6 0.00 0.00 0.00 52 1016.3
20260502052337 13 250 4.8 8.0 0.00 0.00 0.00 53 1016.3
20260502051838 12 250 3.2 8.0 0.00 0.00 0.00 56 1016.2
20260502050836 12 250 1.6 4.8 0.00 0.00 0.00 59 1016.3
20260502050334 12 250 0.0 4.8 0.00 0.00 0.00 57 1016.2
20260502045832 11 250 0.0 3.2 0.00 0.00 0.00 60 1016.3
20260502045332 12 250 1.6 4.8 0.00 0.00 0.00 59 1016.3
20260502044831 12 249 4.8 6.4 0.00 0.00 0.00 59 1016.3
20260502044332 12 250 4.8 6.4 0.00 0.00 0.00 59 1016.3
20260502043332 13 250 4.8 6.4 0.00 0.00 0.00 56 1016.3
20260502042831 13 250 4.8 8.0 0.00 0.00 0.00 54 1016.3
20260502041833 13 249 4.8 9.7 0.00 0.00 0.00 52 1016.3
20260502041330 13 250 3.2 8.0 0.00 0.00 0.00 56 1016.3
20260502040830 12 250 3.2 4.8 0.00 0.00 0.00 58 1016.3
20260502040328 13 250 4.8 6.4 0.00 0.00 0.00 58 1016.3
20260502035827 13 249 4.8 6.4 0.00 0.00 0.00 57 1016.2
20260502035326 13 250 4.8 6.4 0.00 0.00 0.00 56 1016.2
20260502034322 13 250 4.8 6.4 0.00 0.00 0.00 55 1016.1
20260502032821 14 250 4.8 6.4 0.00 0.00 0.00 53 1015.8
20260502032321 14 250 4.8 6.4 0.00 0.00 0.00 53 1015.8
20260502031820 15 250 4.8 6.4 0.00 0.00 0.00 55 1015.8
20260502031318 15 250 3.2 6.4 0.00 0.00 0.00 54 1015.7
20260502030818 15 250 4.8 4.8 0.00 0.00 0.00 53 1015.6
20260502030318 15 250 4.8 6.4 0.00 0.00 0.00 52 1015.6
20260502025817 16 249 4.8 6.4 0.00 0.00 0.00 51 1015.6
20260502025317 16 249 4.8 4.8 0.00 0.00 0.00 49 1015.5
20260502024818 17 250 4.8 4.8 0.00 0.00 0.00 48 1015.5
20260502024317 17 250 3.2 4.8 0.00 0.00 0.00 48 1015.5
20260502023816 18 249 3.2 4.8 0.00 0.00 0.00 45 1015.5
20260502023316 18 249 3.2 4.8 0.00 0.00 0.00 45 1015.5
20260502022814 18 250 1.6 4.8 0.00 0.00 0.00 45 1015.5
20260502022314 20 249 0.0 0.0 0.00 0.00 0.00 47 1015.5
20260502021812 20 249 0.0 0.0 0.00 0.00 0.00 41 1015.5
20260502021312 21 250 0.0 0.0 0.00 0.00 0.00 38 1015.5
20260502020812 21 250 0.0 0.0 0.00 0.00 0.00 32 1015.5
20260502015812 22 250 0.0 0.0 0.00 0.00 0.00 28 1015.5
20260502015310 22 249 0.0 0.0 0.00 0.00 0.00 27 1015.5
20260502014808 22 250 0.0 0.0 0.00 0.00 0.00 28 1015.5
20260502013806 22 249 0.0 0.0 0.00 0.00 0.00 28 1015.6
20260502013306 22 249 0.0 0.0 0.00 0.00 0.00 28 1015.6
20260502012804 22 249 0.0 0.0 0.00 0.00 0.00 28 1015.6
20260502011801 22 249 0.0 1.6 0.00 0.00 0.00 28 1015.6
20260502011258 22 250 0.0 1.6 0.00 0.00 0.00 30 1015.7
20260502010756 22 250 0.0 3.2 0.00 0.00 0.00 28 1015.7
20260502010254 22 250 0.0 4.8 0.00 0.00 0.00 32 1015.8
20260502005752 23 250 0.0 4.8 0.00 0.00 0.00 26 1016.0
20260502005251 22 250 0.0 3.2 0.00 0.00 0.00 28 1016.0
20260502004247 22 249 0.0 3.2 0.00 0.00 0.00 28 1016.0
20260502003745 22 250 0.0 1.6 0.00 0.00 0.00 28 1016.1
20260502003242 22 250 0.0 1.6 0.00 0.00 0.00 27 1016.1
20260502002740 22 250 0.0 1.6 0.00 0.00 0.00 28 1016.2
20260502001736 22 250 0.0 3.2 0.00 0.00 0.00 26 1016.3
20260502001234 22 250 0.0 3.2 0.00 0.00 0.00 30 1016.3
20260502000732 22 249 0.0 4.8 0.00 0.00 0.00 26 1016.3
20260502000233 22 250 1.6 6.4 0.00 0.00 0.00 27 1016.4
20260501235729 22 250 1.6 6.4 0.00 0.00 0.00 27 1016.4
20260501235228 22 250 1.6 6.4 0.00 0.00 0.00 26 1016.4
20260501234726 22 249 1.6 6.4 0.00 0.00 0.00 28 1016.4
20260501234227 22 249 4.8 14.5 0.00 0.00 0.00 26 1016.4
20260501233727 22 250 8.0 17.7 0.00 0.00 0.00 27 1016.5
20260501233227 22 250 8.0 17.7 0.00 0.00 0.00 26 1016.5
20260501232726 22 250 6.4 11.3 0.00 0.00 0.00 28 1016.6
20260501232225 22 249 4.8 11.3 0.00 0.00 0.00 28 1016.6
20260501231726 22 250 4.8 12.9 0.00 0.00 0.00 27 1016.7
20260501231224 22 249 4.8 14.5 0.00 0.00 0.00 26 1016.7
20260501230723 22 249 4.8 14.5 0.00 0.00 0.00 27 1016.8
20260501230222 22 249 3.2 11.3 0.00 0.00 0.00 29 1016.8
20260501225220 23 249 1.6 12.9 0.00 0.00 0.00 30 1016.9
20260501224718 23 249 1.6 8.0 0.00 0.00 0.00 31 1017.0
20260501224219 22 250 3.2 14.5 0.00 0.00 0.00 28 1017.1
20260501223718 22 249 4.8 14.5 0.00 0.00 0.00 28 1017.1
20260501223217 22 249 6.4 12.9 0.00 0.00 0.00 28 1017.3
20260501222716 22 250 8.0 14.5 0.00 0.00 0.00 26 1017.4
20260501222216 22 250 6.4 14.5 0.00 0.00 0.00 31 1017.4
20260501221715 22 249 4.8 12.9 0.00 0.00 0.00 30 1017.5
20260501220715 22 249 4.8 12.9 0.00 0.00 0.00 26 1017.6
20260501220215 22 250 4.8 11.3 0.00 0.00 0.00 34 1017.6
20260501215714 22 249 6.4 12.9 0.00 0.00 0.00 27 1017.7
20260501215212 22 250 6.4 12.9 0.00 0.00 0.00 27 1017.7
20260501214711 22 250 8.0 12.9 0.00 0.00 0.00 27 1017.8
20260501214211 22 250 6.4 14.5 0.00 0.00 0.00 27 1017.8
20260501213709 22 249 3.2 14.5 0.00 0.00 0.00 26 1017.9
20260501213210 22 249 4.8 11.3 0.00 0.00 0.00 29 1017.8
20260501212709 22 250 4.8 11.3 0.00 0.00 0.00 26 1017.9
20260501212209 22 250 4.8 12.9 0.00 0.00 0.00 25 1018.0
20260501211708 22 250 4.8 12.9 0.00 0.00 0.00 27 1018.0
20260501210706 22 250 4.8 12.9 0.00 0.00 0.00 28 1018.0
20260501210205 22 250 6.4 19.3 0.00 0.00 0.00 30 1018.1
20260501205704 21 250 6.4 19.3 0.00 0.00 0.00 28 1018.1
20260501205202 21 249 3.2 11.3 0.00 0.00 0.00 30 1018.1
20260501204703 21 249 4.8 11.3 0.00 0.00 0.00 28 1018.1
20260501204203 21 250 6.4 16.1 0.00 0.00 0.00 34 1018.1
20260501203703 21 249 6.4 16.1 0.00 0.00 0.00 33 1018.1
20260501202659 21 249 6.4 16.1 0.00 0.00 0.00 29 1018.2
20260501202157 21 250 8.0 16.1 0.00 0.00 0.00 28 1018.3
20260501201658 21 250 9.7 16.1 0.00 0.00 0.00 30 1018.3
20260501201159 21 250 9.7 16.1 0.00 0.00 0.00 32 1018.2
20260501200657 21 250 6.4 16.1 0.00 0.00 0.00 34 1018.3
20260501195656 21 250 4.8 11.3 0.00 0.00 0.00 30 1018.3
20260501195156 21 250 6.4 12.9 0.00 0.00 0.00 28 1018.4
20260501194656 21 250 6.4 12.9 0.00 0.00 0.00 31 1018.6
20260501194156 21 249 4.8 9.7 0.00 0.00 0.00 30 1018.4
20260501193654 21 250 6.4 9.7 0.00 0.00 0.00 30 1018.6
20260501193154 21 250 4.8 9.7 0.00 0.00 0.00 35 1018.6
20260501192654 20 249 3.2 9.7 0.00 0.00 0.00 31 1018.7
20260501191654 20 250 8.0 12.9 0.00 0.00 0.00 33 1018.7
20260501191154 20 249 9.7 14.5 0.00 0.00 0.00 34 1018.8
20260501190654 20 249 9.7 14.5 0.00 0.00 0.00 40 1018.8
20260501190153 20 249 8.0 14.5 0.00 0.00 0.00 36 1018.8
20260501185653 20 250 8.0 14.5 0.00 0.00 0.00 40 1018.8
20260501185154 20 250 8.0 14.5 0.00 0.00 0.00 36 1018.9
20260501184152 19 250 8.0 14.5 0.00 0.00 0.00 37 1018.9